Temp
-9 -9 -9 -9 -9 -8 -8 -8 -8 -8 -8 -8 -8 -8 -8 -8 -8 -8 -8 -8 -8 -8 -8 -8 -8 -8 -8 -8 -9 -8 -8 -8 -8 -8 -8 -9 -8 -9 -8 -8 -8 -8 -8 -8 -8
-9 -9 -9 -9 -9 -9 -9 -9 -9 -8 -8 -8 -8 -8 -8 -8 -8 -8 -8 -8 -8 -8 -8 -9 -9 -8 -9 -9 -9 -9 -8 -8 -9 -9 -9 -8 -8 -9 -9 -9 -9 -9 -9 -9 -9
-10 -10 -10 -10 -10 -10 -9 -9 -9 -9 -9 -9 -9 -9 -9 -9 -9 -9 -9 -9 -9 -9 -9 -9 -9 -9 -9 -8 -9 -8 -8 -9 -8 -10 -10 -8 -8 -9 -9 -9 -9 -9 -9 -9 -9
-10 -10 -10 -10 -10 -10 -10 -10 -10 -10 -10 -9 -9 -9 -9 -9 -9 -10 -9 -9 -9 -9 -9 -9 -10 -9 -9 -9 -10 -8 -9 -9 -9 -9 -9 -9 -9 -9 -9 -9 -10 -10 -9 -9 -9
-11 -10 -10 -11 -11 -10 -10 -10 -10 -10 -10 -10 -10 -9 -9 -9 -10 -10 -9 -10 -10 -10 -9 -10 -10 -10 -9 -9 -9 -9 -9 -9 -9 -9 -9 -9 -8 -8 -9 -9 -9 -9 -9 -9 -9
-12 -11 -10 -10 -11 -11 -11 -11 -10 -10 -10 -10 -9 -9 -9 -9 -10 -10 -10 -10 -10 -10 -10 -10 -10 -10 -9 -9 -9 -9 -9 -9 -9 -9 -9 -9 -9 -8 -8 -10 -9 -9 -9 -9 -9
-12 -11 -11 -11 -11 -11 -11 -11 -11 -11 -10 -10 -10 -10 -9 -11 -10 -11 -10 -11 -10 -10 -10 -10 -10 -9 -9 -9 -9 -9 -9 -9 -9 -10 -10 -9 -7 -8 -9 -10 -9 -9 -9 -9 -9
-11 -11 -11 -11 -11 -11 -11 -12 -12 -11 -11 -10 -10 -10 -9 -11 -11 -11 -10 -11 -11 -11 -11 -11 -11 -10 -10 -9 -9 -9 -9 -9 -10 -11 -11 -10 -7 -9 -10 -10 -9 -9 -9 -9 -9
-12 -12 -12 -12 -11 -12 -12 -12 -11 -11 -11 -10 -10 -10 -10 -11 -11 -11 -11 -11 -11 -11 -11 -12 -11 -10 -10 -10 -9 -10 -10 -10 -10 -10 -11 -11 -8 -8 -10 -10 -10 -10 -10 -9 -9
-12 -12 -12 -12 -12 -12 -12 -12 -11 -11 -11 -11 -10 -11 -10 -11 -11 -11 -11 -12 -12 -12 -11 -12 -11 -10 -10 -11 -11 -11 -11 -10 -10 -11 -11 -11 -9 -9 -10 -10 -10 -10 -10 -10 -9
-12 -12 -12 -12 -12 -11 -12 -12 -11 -11 -10 -11 -10 -11 -11 -11 -11 -11 -12 -12 -12 -12 -12 -12 -11 -10 -11 -12 -12 -11 -11 -10 -10 -11 -11 -11 -10 -9 -10 -10 -10 -10 -10 -10 -9
-12 -12 -12 -12 -12 -12 -12 -12 -11 -11 -11 -11 -11 -11 -12 -12 -11 -12 -13 -12 -12 -12 -12 -12 -11 -11 -11 -11 -11 -11 -11 -10 -11 -11 -12 -12 -10 -9 -9 -10 -10 -10 -10 -10 -10
-13 -13 -13 -12 -12 -12 -12 -12 -12 -12 -12 -11 -12 -12 -12 -13 -12 -13 -13 -13 -12 -13 -13 -13 -11 -12 -12 -11 -11 -11 -11 -11 -12 -12 -11 -12 -10 -9 -9 -9 -10 -10 -11 -11 -11
-13 -13 -13 -13 -12 -13 -13 -13 -13 -13 -13 -11 -12 -13 -12 -13 -14 -13 -13 -14 -13 -13 -13 -12 -11 -12 -12 -11 -12 -12 -13 -12 -11 -12 -11 -12 -11 -10 -9 -10 -10 -11 -11 -12 -12
-13 -13 -13 -13 -13 -13 -13 -14 -14 -14 -14 -12 -12 -12 -12 -12 -13 -13 -13 -14 -14 -13 -13 -12 -13 -13 -13 -13 -14 -12 -13 -13 -13 -13 -13 -11 -12 -11 -11 -10 -10 -11 -12 -12 -12
-14 -14 -14 -14 -14 -14 -14 -15 -14 -15 -14 -14 -12 -12 -12 -13 -14 -14 -14 -14 -15 -15 -15 -13 -14 -13 -13 -14 -14 -15 -14 -14 -14 -14 -14 -12 -12 -12 -11 -11 -11 -10 -11 -12 -12
-14 -14 -14 -14 -14 -15 -15 -15 -15 -14 -14 -15 -14 -14 -14 -15 -15 -15 -15 -15 -16 -16 -16 -15 -14 -14 -15 -15 -15 -15 -15 -15 -15 -14 -14 -13 -14 -13 -12 -11 -12 -12 -11 -11 -12
-14 -14 -14 -14 -14 -15 -15 -15 -15 -14 -15 -16 -15 -16 -16 -15 -15 -15 -16 -16 -17 -17 -16 -16 -15 -15 -15 -16 -15 -15 -16 -16 -15 -15 -15 -15 -14 -13 -13 -13 -13 -12 -12 -11 -11
-16 -16 -15 -15 -15 -16 -16 -16 -15 -16 -16 -17 -18 -18 -18 -17 -17 -16 -17 -17 -17 -17 -17 -16 -16 -15 -15 -17 -17 -16 -17 -16 -18 -17 -17 -16 -15 -15 -14 -14 -13 -13 -13 -12 -12
-17 -17 -17 -17 -17 -17 -17 -16 -17 -18 -18 -18 -18 -19 -19 -19 -19 -19 -18 -18 -18 -18 -19 -19 -19 -16 -15 -18 -18 -19 -18 -18 -18 -18 -17 -17 -16 -16 -15 -15 -14 -14 -14 -13 -13
-18 -18 -18 -18 -19 -18 -17 -17 -17 -17 -18 -18 -18 -18 -18 -19 -20 -20 -19 -19 -19 -20 -20 -21 -22 -21 -21 -20 -21 -20 -20 -20 -19 -17 -18 -17 -17 -16 -17 -16 -16 -14 -15 -15 -14
-19 -19 -19 -20 -20 -19 -18 -18 -19 -19 -20 -19 -20 -21 -21 -21 -20 -20 -20 -21 -21 -21 -22 -23 -23 -23 -22 -21 -21 -20 -20 -19 -18 -19 -16 -17 -17 -16 -17 -17 -16 -16 -17 -16 -15
-21 -21 -22 -22 -21 -20 -21 -21 -21 -22 -22 -22 -22 -23 -23 -22 -22 -22 -22 -22 -24 -24 -24 -24 -23 -23 -22 -22 -21 -20 -20 -20 -19 -19 -19 -18 -17 -17 -17 -17 -17 -17 -17 -17 -16
-22 -23 -23 -23 -22 -22 -22 -23 -23 -23 -24 -24 -24 -24 -24 -24 -24 -24 -24 -25 -25 -25 -25 -25 -24 -25 -24 -23 -23 -21 -21 -20 -21 -20 -19 -19 -19 -19 -18 -18 -17 -17 -17 -16 -16
-23 -23 -23 -24 -23 -24 -25 -25 -25 -25 -25 -25 -25 -24 -25 -25 -25 -25 -26 -26 -26 -26 -26 -25 -25 -25 -25 -25 -24 -24 -22 -22 -23 -22 -22 -21 -21 -19 -20 -18 -18 -18 -19 -19 -17
-24 -24 -24 -24 -25 -25 -25 -25 -25 -25 -25 -25 -25 -25 -26 -26 -27 -26 -26 -26 -26 -26 -26 -26 -26 -26 -25 -26 -26 -25 -24 -24 -25 -24 -24 -23 -20 -20 -20 -19 -19 -20 -21 -20 -19
-25 -24 -25 -25 -25 -25 -25 -25 -26 -26 -25 -26 -26 -27 -27 -27 -27 -26 -26 -26 -26 -26 -26 -26 -26 -26 -26 -26 -26 -25 -25 -25 -25 -25 -24 -23 -22 -21 -20 -21 -20 -21 -21 -20 -19
Height
5815 5817 5821 5823 5826 5827 5829 5830 5831 5832 5833 5835 5836 5837 5838 5839 5839 5840 5840 5840 5839 5840 5840 5839 5838 5839 5839 5840 5836 5835 5832 5829 5834 5833 5832 5833 5831 5831 5833 5827 5826 5827 5828 5825 5823
5805 5808 5810 5813 5816 5818 5820 5822 5823 5824 5825 5826 5827 5829 5830 5831 5832 5831 5832 5831 5832 5831 5831 5831 5831 5831 5830 5831 5829 5827 5822 5821 5821 5819 5821 5821 5823 5823 5821 5821 5818 5821 5819 5817 5816
5794 5797 5800 5803 5805 5808 5810 5812 5813 5815 5816 5817 5819 5820 5821 5821 5823 5822 5821 5822 5822 5821 5821 5820 5820 5822 5821 5819 5819 5817 5815 5815 5811 5807 5809 5811 5813 5809 5811 5810 5813 5813 5807 5806 5805
5783 5786 5789 5792 5795 5798 5800 5802 5803 5804 5805 5807 5809 5811 5812 5812 5815 5811 5812 5813 5813 5811 5811 5808 5807 5809 5809 5808 5808 5806 5808 5804 5802 5802 5802 5803 5801 5805 5800 5801 5808 5801 5798 5797 5798
5771 5775 5777 5779 5782 5786 5788 5790 5792 5794 5796 5797 5799 5801 5802 5803 5807 5798 5799 5801 5801 5800 5801 5798 5797 5796 5797 5797 5798 5797 5798 5796 5794 5795 5797 5794 5794 5792 5789 5800 5797 5791 5789 5788 5788
5758 5761 5765 5767 5770 5773 5776 5778 5780 5782 5784 5786 5787 5788 5791 5793 5791 5788 5788 5788 5789 5790 5789 5788 5787 5786 5786 5788 5788 5789 5789 5787 5787 5788 5787 5785 5785 5777 5788 5791 5788 5782 5782 5782 5781
5741 5747 5751 5752 5754 5758 5763 5765 5768 5770 5771 5773 5774 5776 5778 5784 5780 5779 5778 5780 5779 5779 5779 5777 5777 5777 5779 5779 5778 5778 5779 5779 5780 5782 5777 5775 5774 5777 5780 5778 5777 5776 5775 5773 5773
5731 5735 5740 5742 5744 5747 5751 5754 5757 5759 5761 5762 5765 5767 5770 5771 5770 5768 5771 5770 5770 5769 5770 5769 5769 5770 5770 5767 5769 5769 5771 5770 5775 5771 5769 5767 5769 5771 5772 5769 5766 5766 5766 5765 5766
5719 5723 5728 5731 5734 5736 5741 5743 5745 5748 5749 5752 5756 5757 5761 5760 5760 5761 5761 5758 5760 5761 5761 5760 5761 5762 5760 5759 5760 5761 5761 5759 5758 5760 5760 5760 5760 5762 5761 5760 5758 5756 5755 5755 5755
5708 5711 5715 5720 5723 5726 5730 5732 5734 5736 5740 5742 5745 5748 5747 5748 5750 5750 5751 5751 5752 5752 5752 5753 5752 5752 5752 5754 5752 5750 5748 5749 5749 5749 5747 5751 5754 5753 5751 5749 5748 5746 5746 5746 5746
5695 5699 5703 5707 5710 5714 5718 5720 5723 5725 5729 5732 5733 5736 5734 5735 5736 5738 5741 5741 5743 5743 5743 5742 5743 5742 5746 5742 5742 5741 5739 5739 5738 5738 5734 5735 5741 5748 5742 5737 5738 5738 5736 5735 5735
5682 5686 5691 5695 5699 5703 5706 5708 5712 5716 5718 5721 5721 5724 5726 5723 5724 5729 5731 5730 5731 5731 5730 5733 5736 5736 5733 5733 5732 5730 5729 5730 5731 5725 5719 5717 5727 5736 5732 5729 5727 5726 5726 5724 5724
5668 5673 5677 5681 5685 5689 5693 5697 5699 5701 5703 5710 5709 5712 5713 5712 5713 5720 5714 5715 5717 5719 5720 5723 5729 5721 5721 5722 5718 5717 5719 5719 5714 5710 5710 5704 5714 5725 5729 5717 5716 5716 5713 5713 5713
5652 5656 5661 5665 5672 5676 5680 5683 5686 5687 5690 5699 5695 5697 5698 5700 5703 5702 5702 5705 5702 5705 5705 5708 5712 5712 5710 5710 5701 5707 5704 5700 5700 5694 5696 5694 5693 5711 5718 5711 5708 5705 5702 5700 5699
5635 5640 5644 5649 5654 5660 5664 5667 5671 5675 5676 5683 5676 5678 5684 5689 5690 5691 5689 5688 5690 5691 5688 5701 5697 5698 5698 5700 5684 5691 5689 5686 5684 5682 5678 5690 5669 5691 5706 5701 5699 5694 5691 5689 5685
5618 5623 5628 5633 5639 5646 5647 5651 5657 5661 5659 5658 5660 5664 5668 5671 5672 5674 5675 5675 5673 5672 5672 5683 5684 5682 5682 5682 5676 5677 5675 5669 5667 5667 5657 5678 5667 5670 5688 5690 5686 5682 5678 5676 5672
5601 5605 5610 5618 5625 5627 5629 5633 5638 5641 5644 5642 5649 5652 5652 5654 5657 5656 5656 5658 5657 5655 5658 5663 5668 5672 5665 5662 5670 5660 5664 5652 5649 5641 5634 5662 5644 5647 5672 5673 5668 5667 5663 5662 5660
5582 5585 5589 5600 5607 5609 5612 5616 5621 5625 5626 5630 5635 5636 5637 5638 5639 5641 5639 5642 5640 5636 5637 5640 5651 5661 5657 5649 5650 5647 5644 5638 5624 5625 5626 5631 5619 5632 5646 5650 5643 5642 5643 5644 5643
5565 5570 5574 5581 5586 5589 5594 5600 5611 5613 5616 5618 5620 5619 5622 5623 5625 5627 5624 5623 5621 5623 5620 5618 5620 5645 5639 5633 5632 5638 5621 5630 5611 5614 5597 5608 5610 5615 5629 5621 5623 5622 5622 5622 5622
5551 5556 5559 5564 5567 5572 5580 5592 5599 5601 5601 5601 5604 5606 5609 5612 5611 5611 5611 5611 5607 5604 5602 5600 5593 5616 5621 5611 5615 5609 5618 5605 5599 5593 5585 5580 5593 5597 5607 5597 5594 5599 5600 5601 5602
5537 5542 5545 5549 5550 5556 5570 5581 5582 5581 5578 5584 5586 5587 5593 5594 5594 5594 5593 5592 5596 5592 5591 5587 5583 5583 5589 5590 5594 5602 5596 5593 5584 5583 5571 5568 5574 5574 5575 5570 5579 5578 5581 5584 5586
5522 5528 5530 5533 5538 5546 5557 5563 5565 5563 5563 5565 5566 5568 5572 5575 5573 5573 5574 5572 5574 5576 5573 5571 5567 5567 5571 5573 5574 5581 5579 5581 5563 5571 5566 5557 5558 5556 5548 5552 5559 5562 5563 5568 5567
5506 5513 5515 5517 5525 5535 5542 5545 5548 5550 5550 5550 5552 5555 5557 5559 5552 5555 5553 5555 5554 5555 5559 5557 5555 5551 5555 5556 5557 5557 5557 5558 5549 5549 5546 5545 5550 5554 5543 5541 5548 5548 5551 5555 5551
5494 5498 5503 5504 5513 5518 5523 5530 5534 5537 5536 5536 5540 5541 5542 5542 5544 5539 5538 5536 5540 5543 5547 5543 5541 5542 5540 5540 5539 5543 5538 5539 5540 5531 5528 5533 5534 5543 5537 5534 5534 5540 5539 5542 5544
5479 5483 5494 5497 5504 5508 5509 5517 5522 5523 5523 5526 5526 5528 5526 5525 5529 5528 5530 5528 5529 5534 5533 5530 5532 5530 5527 5529 5525 5529 5531 5529 5523 5518 5521 5529 5522 5533 5520 5527 5534 5534 5536 5534 5536
5468 5476 5484 5489 5491 5495 5498 5508 5511 5510 5511 5516 5512 5517 5513 5512 5518 5522 5519 5519 5518 5521 5522 5518 5519 5518 5518 5518 5515 5515 5521 5523 5519 5516 5514 5509 5514 5511 5514 5522 5523 5525 5526 5527 5532
5459 5468 5473 5478 5482 5483 5491 5496 5497 5494 5498 5500 5502 5502 5503 5504 5510 5512 5512 5512 5510 5512 5513 5510 5508 5506 5507 5509 5500 5503 5513 5511 5508 5508 5499 5500 5510 5506 5503 5511 5514 5513 5516 5518 5522
Wind_Speed
50 50 51 51 51 50 50 49 49 48 47 47 46 45 44 43 44 45 44 47 47 44 43 41 44 45 43 45 45 45 58 60 56 53 48 42 43 41 44 50 48 49 46 47 45
49 49 49 50 51 51 51 51 51 49 48 47 47 46 45 43 43 45 45 47 48 48 47 47 46 48 48 51 52 51 58 49 53 60 54 48 45 42 45 47 50 45 43 45 45
51 51 50 51 50 52 52 52 52 50 49 48 48 48 47 45 44 47 49 50 50 52 54 53 56 55 52 56 54 56 55 51 48 44 48 54 45 42 40 43 43 40 44 44 44
59 55 56 54 54 54 55 55 54 54 51 51 51 51 52 52 52 54 56 58 60 62 61 67 63 60 60 59 56 58 49 44 43 43 43 42 42 37 40 41 33 41 46 46 44
70 64 61 60 63 62 62 60 59 58 58 55 56 56 59 61 54 60 63 64 57 58 57 48 46 51 55 54 54 51 44 42 40 41 41 44 43 40 43 34 39 45 46 46 44
79 77 71 72 72 73 68 63 63 64 66 65 64 65 65 63 54 51 48 51 48 45 45 43 42 43 48 46 46 46 44 43 40 38 41 44 42 48 36 29 37 45 46 44 43
58 64 62 59 63 63 65 68 62 49 47 47 47 47 47 42 45 44 45 43 46 47 45 44 45 45 45 45 46 45 48 42 37 33 39 43 45 42 36 35 38 41 44 45 42
53 53 49 47 42 39 43 45 46 47 45 46 47 47 45 44 45 46 46 43 44 45 43 42 43 45 45 48 47 46 44 41 32 35 40 44 44 41 37 39 41 41 42 43 43
51 48 46 43 42 42 44 45 46 48 47 47 46 45 43 44 44 41 44 44 43 42 41 41 42 44 46 47 47 44 41 42 42 41 43 44 45 44 41 40 43 45 46 45 43
54 51 50 49 47 46 46 45 46 46 46 45 44 43 43 43 42 43 44 42 41 42 43 41 43 45 46 45 46 47 49 48 47 47 48 47 45 48 47 46 47 48 47 46 45
58 57 55 52 52 53 52 51 51 50 50 47 48 46 45 44 45 46 43 42 42 41 43 45 44 45 43 48 50 50 51 50 50 50 53 52 49 45 52 54 51 50 50 50 50
63 59 57 58 58 58 56 56 56 55 54 51 49 48 47 49 49 48 45 46 44 45 46 46 43 43 48 50 50 50 50 49 50 54 56 58 54 45 51 53 54 53 53 53 53
66 64 63 62 61 62 61 59 59 59 58 54 53 53 53 54 52 47 53 53 51 47 43 42 44 45 45 45 46 46 45 45 51 55 58 62 60 52 46 53 52 52 54 53 53
74 67 63 66 62 63 65 61 61 61 61 60 60 60 61 59 55 56 56 54 56 53 51 53 51 46 48 51 50 46 41 48 51 56 58 57 63 53 46 51 51 51 49 48 48
74 70 66 67 65 65 68 68 65 64 65 66 71 70 66 63 58 56 55 56 54 56 59 55 53 51 51 46 51 52 50 52 54 56 61 51 68 60 45 51 52 52 47 45 44
75 74 76 73 68 68 68 70 69 69 73 71 72 70 70 65 61 59 58 57 57 57 59 57 56 58 58 55 57 56 57 61 62 61 69 61 67 64 55 50 53 57 55 49 47
80 79 78 78 77 72 75 75 74 74 73 71 70 69 68 66 62 60 60 60 60 62 61 61 62 58 62 65 60 64 61 65 69 73 78 63 69 70 63 55 55 60 61 60 55
81 80 81 82 82 81 77 74 78 78 73 69 69 66 64 66 66 64 62 60 59 62 66 66 65 59 62 67 67 67 65 68 78 74 75 70 75 72 59 53 60 63 63 63 64
77 76 78 80 83 74 72 72 73 72 68 60 55 54 57 62 62 63 64 63 65 65 67 70 72 66 69 66 67 70 68 65 71 75 74 72 71 66 53 62 66 68 67 64 63
69 69 70 65 67 65 66 72 67 59 54 54 52 53 51 51 54 57 60 65 67 67 65 63 67 71 74 66 64 58 57 60 65 73 76 69 66 62 59 64 69 67 63 59 61
64 60 58 58 57 61 63 66 60 58 58 60 59 60 60 58 57 56 60 64 63 63 60 60 59 61 59 58 55 58 61 62 66 64 74 70 56 69 68 73 62 66 66 65 61
58 54 55 53 54 56 54 55 57 56 55 57 57 56 56 54 60 61 62 58 59 59 57 57 57 60 60 56 60 53 65 54 62 66 59 54 46 39 45 54 63 66 66 59 64
52 50 48 50 55 54 52 50 50 47 47 48 51 50 50 54 57 59 57 54 46 44 52 53 56 52 49 33 31 46 55 56 48 63 43 44 33 44 24 34 44 53 52 50 47
54 51 51 51 50 51 47 43 42 40 43 45 46 47 51 53 50 51 46 43 44 42 43 43 57 51 52 55 37 46 37 43 42 39 56 52 54 31 26 34 39 32 29 53 30
52 54 53 51 47 42 41 40 39 41 45 46 50 51 48 49 46 44 43 47 47 41 44 40 42 47 47 46 50 56 43 51 49 47 52 48 47 48 49 49 42 28 18 13 27
50 49 49 46 46 47 44 42 44 45 44 45 50 46 46 46 46 36 35 39 43 42 45 47 45 45 59 45 43 47 49 46 48 50 50 48 50 57 55 44 42 51 46 42 21
49 49 49 48 48 48 46 43 39 42 45 42 40 38 38 35 34 38 29 37 40 41 44 43 41 45 51 49 52 52 46 50 52 50 46 51 56 59 61 60 63 64 56 47 44
Wind_Direction
255 256 259 260 260 259 260 260 260 260 261 261 262 265 266 268 270 272 272 270 273 274 273 272 268 271 277 275 274 280 285 284 281 280 274 269 265 265 274 274 275 282 284 284 287
254 257 256 259 260 261 261 261 261 260 260 261 262 261 262 264 267 270 270 271 272 273 273 273 272 273 270 275 275 282 285 289 282 279 276 276 273 267 269 272 275 278 280 280 282
254 255 259 259 260 262 261 261 260 260 260 261 262 264 265 264 265 270 271 273 274 274 273 274 278 278 273 275 275 279 284 286 289 279 271 272 274 268 267 264 270 274 273 273 274
255 256 257 260 263 263 262 262 260 260 260 262 263 264 266 268 274 274 272 275 278 274 276 281 276 272 274 275 276 279 280 282 283 282 277 280 276 272 273 269 268 268 270 271 271
257 256 258 260 263 263 260 260 261 262 263 262 264 266 269 271 276 278 277 277 277 273 275 276 273 272 274 274 276 277 275 277 283 281 281 280 278 277 265 273 268 266 266 269 272
257 254 257 260 262 260 260 262 265 267 264 265 268 269 269 272 274 274 275 274 276 275 274 276 275 273 274 275 277 278 279 280 279 284 281 277 273 272 284 275 265 266 271 273 274
261 257 262 261 258 257 255 258 264 264 266 268 270 271 270 272 270 274 274 276 274 274 274 275 276 275 276 278 278 279 280 280 285 279 274 274 275 278 280 274 269 269 271 274 274
256 256 254 254 253 255 257 259 261 263 266 268 270 270 271 272 272 273 275 272 273 274 275 276 277 282 281 276 277 278 279 285 276 270 272 271 279 277 273 272 270 269 270 273 274
252 248 252 255 258 256 256 257 262 266 270 270 269 272 271 271 271 269 269 270 272 274 274 276 280 280 277 277 278 278 279 273 273 272 268 270 276 277 273 269 272 272 270 270 271
255 252 255 257 256 254 254 257 260 262 263 267 269 268 269 268 267 267 266 267 272 273 273 276 276 274 274 281 281 278 276 278 279 278 276 273 275 277 275 271 269 268 270 272 272
251 251 253 257 261 262 261 264 265 265 267 267 270 268 269 266 268 266 269 268 268 270 272 269 269 278 281 275 275 278 280 282 283 283 281 280 274 272 270 271 270 271 271 271 274
249 247 250 257 259 256 257 262 263 263 263 262 263 269 268 269 270 272 270 268 266 266 265 267 276 277 273 275 276 278 283 288 287 284 281 279 276 274 271 272 271 269 269 270 270
245 249 255 255 258 254 256 262 262 258 260 263 265 273 268 265 269 269 269 277 276 271 268 269 278 272 270 274 275 276 286 289 285 282 282 281 280 278 274 273 274 273 273 271 273
245 248 252 256 258 256 256 259 261 256 261 272 268 263 269 273 268 268 271 270 274 277 270 275 274 272 272 271 271 272 283 276 277 278 280 282 283 277 280 278 278 275 273 269 267
247 253 253 254 258 257 256 256 257 254 260 268 268 271 271 272 272 271 272 272 270 270 270 281 270 267 265 265 270 271 273 275 274 275 275 273 282 290 279 277 276 278 278 272 267
248 249 249 253 254 258 254 252 252 254 256 257 263 268 272 272 270 270 270 268 266 263 262 267 263 266 266 262 268 272 272 276 276 277 272 280 278 278 286 286 280 275 275 273 264
249 250 251 251 249 246 246 246 249 250 256 256 260 264 267 267 267 268 267 265 264 263 262 260 264 264 268 270 272 277 279 274 272 272 275 281 270 276 297 288 278 275 272 271 268
246 246 246 249 249 246 243 244 246 252 249 252 257 259 262 263 264 265 265 264 267 267 266 266 260 265 267 274 272 273 274 269 271 270 276 267 267 279 285 274 268 265 264 265 269
243 245 246 248 245 239 238 240 246 248 250 250 254 255 256 259 263 265 267 273 275 276 277 277 277 269 274 277 276 277 271 280 270 270 264 267 271 276 277 275 273 267 263 259 259
237 239 238 238 237 242 243 241 247 252 253 254 259 261 262 264 267 270 271 273 277 279 280 280 281 280 275 276 276 272 276 269 267 268 268 270 272 274 271 268 265 267 259 254 255
238 242 250 254 256 254 253 251 261 265 267 269 274 275 277 278 277 275 276 278 278 278 276 274 271 274 274 273 269 262 261 265 263 265 267 273 266 268 263 258 260 256 259 259 255
253 260 257 259 255 262 267 270 269 267 269 272 274 276 276 276 278 278 279 277 278 275 267 260 259 260 261 263 261 252 257 258 246 254 256 250 266 278 250 259 249 255 256 257 253
249 252 249 250 255 264 264 262 262 264 268 270 272 272 274 276 276 278 281 279 270 262 256 253 249 261 257 236 237 243 239 245 247 245 258 254 244 244 247 230 251 250 250 252 245
245 247 249 252 258 261 261 261 267 266 266 267 272 275 278 279 280 276 272 266 255 256 262 264 256 267 267 256 257 250 238 237 261 264 259 249 258 255 266 252 247 254 236 239 240
242 245 250 254 257 254 257 260 259 262 270 277 278 277 271 268 266 257 258 247 260 264 265 267 271 268 272 273 275 270 261 262 273 275 271 263 271 264 263 262 272 252 267 253 240
238 240 243 245 246 249 252 259 267 274 271 267 269 267 259 258 254 262 255 257 260 264 266 267 271 272 263 280 282 281 265 263 279 286 282 277 267 271 262 256 249 277 289 282 266
236 237 237 240 241 247 257 270 268 264 274 269 259 254 252 253 245 254 257 260 254 261 266 272 274 273 275 280 281 282 287 278 276 281 280 277 268 272 269 272 269 275 280 279 273